N1985 OMDB-OBBI

Flight info

Callsign N1985
Flight time 0h 50m
Altitude 26000
Route NABIX P699 ORMID M556 ORDIG
Aircraft C25C/M-SDE2E3FGHRWXY/LB1

Departure

Time 2026-04-25 08:23
Airport Dubai International Airport (OMDB)

Arrival

Time 2026-04-25 09:14
Airport Bahrain International Airport (OBBI)
Time Latitude Longitude Altitude Speed Heading
2026-04-25 08:02 25.25789 55.37016 15 ft 0 kts 31°
2026-04-25 08:14 25.25777 55.37009 15 ft 3 kts 34°
2026-04-25 08:14 25.25761 55.36995 15 ft 3 kts 40°
2026-04-25 08:14 25.25746 55.36980 15 ft 3 kts 46°
2026-04-25 08:14 25.25733 55.36963 16 ft 3 kts 54°
2026-04-25 08:15 25.25723 55.36944 16 ft 3 kts 73°
2026-04-25 08:15 25.25723 55.36928 16 ft 1 kts 120°
2026-04-25 08:15 25.25723 55.36927 16 ft 0 kts 121°
2026-04-25 08:19 25.25708 55.36955 16 ft 15 kts 122°
2026-04-25 08:19 25.25608 55.37134 16 ft 38 kts 121°
2026-04-25 08:19 25.25475 55.37371 16 ft 12 kts 126°
2026-04-25 08:20 25.25377 55.37386 17 ft 19 kts 157°
2026-04-25 08:20 25.25278 55.37552 18 ft 36 kts 122°
2026-04-25 08:20 25.25118 55.37831 17 ft 47 kts 123°
2026-04-25 08:20 25.25014 55.38015 17 ft 22 kts 122°
2026-04-25 08:21 25.24944 55.38115 17 ft 11 kts 163°
2026-04-25 08:21 25.24894 55.38104 19 ft 0 kts 212°
2026-04-25 08:21 25.24889 55.38101 19 ft 5 kts 211°
2026-04-25 08:22 25.24833 55.38048 24 ft 15 kts 240°
2026-04-25 08:22 25.24839 55.37970 26 ft 0 kts 300°
2026-04-25 08:23 25.24901 55.37858 24 ft 52 kts 301°
2026-04-25 08:23 25.25261 55.37212 72 ft 140 kts 302°
2026-04-25 08:23 25.25887 55.36140 621 ft 186 kts 303°
2026-04-25 08:23 25.26622 55.34817 1279 ft 216 kts 301°
2026-04-25 08:24 25.27432 55.33300 1986 ft 240 kts 302°
2026-04-25 08:24 25.28336 55.31653 2684 ft 260 kts 302°
2026-04-25 08:24 25.29004 55.29759 3348 ft 275 kts 278°
2026-04-25 08:24 25.28778 55.27653 3988 ft 277 kts 253°
2026-04-25 08:25 25.28015 55.25728 4673 ft 271 kts 251°
2026-04-25 08:25 25.27750 55.23712 5321 ft 263 kts 268°
2026-04-25 08:25 25.27676 55.21716 5988 ft 258 kts 269°
2026-04-25 08:25 25.27591 55.19753 6684 ft 252 kts 266°
2026-04-25 08:26 25.27404 55.17834 7408 ft 256 kts 263°
2026-04-25 08:26 25.27195 55.15817 8155 ft 271 kts 263°
2026-04-25 08:26 25.26991 55.13697 8943 ft 284 kts 264°
2026-04-25 08:26 25.26787 55.11486 9755 ft 295 kts 263°
2026-04-25 08:27 25.26572 55.09197 10510 ft 304 kts 263°
2026-04-25 08:27 25.26347 55.06837 11283 ft 312 kts 263°
2026-04-25 08:27 25.26120 55.04429 12073 ft 318 kts 263°
2026-04-25 08:27 25.25885 55.01988 12886 ft 321 kts 263°
2026-04-25 08:28 25.25654 54.99520 13720 ft 324 kts 263°
2026-04-25 08:28 25.25413 54.97034 14469 ft 326 kts 263°
2026-04-25 08:28 25.25175 54.94509 14922 ft 340 kts 262°
2026-04-25 08:28 25.24912 54.91812 14937 ft 365 kts 263°
2026-04-25 08:29 25.24734 54.89928 14945 ft 379 kts 263°
2026-04-25 08:29 25.24450 54.86984 15290 ft 385 kts 263°
2026-04-25 08:29 25.24175 54.84074 16154 ft 377 kts 262°
2026-04-25 08:29 25.23898 54.81224 17042 ft 370 kts 262°
2026-04-25 08:30 25.23628 54.78435 17950 ft 362 kts 262°
2026-04-25 08:30 25.23363 54.75697 18785 ft 355 kts 262°
2026-04-25 08:30 25.23101 54.73015 19596 ft 348 kts 262°
2026-04-25 08:30 25.22848 54.70380 20433 ft 342 kts 262°
2026-04-25 08:31 25.22592 54.67792 21287 ft 336 kts 263°
2026-04-25 08:31 25.22347 54.65254 22168 ft 330 kts 263°
2026-04-25 08:31 25.22101 54.62760 23074 ft 324 kts 263°
2026-04-25 08:31 25.21863 54.60313 23923 ft 317 kts 263°
2026-04-25 08:32 25.21627 54.57907 24711 ft 312 kts 263°
2026-04-25 08:32 25.21394 54.55551 25512 ft 306 kts 263°
2026-04-25 08:32 25.21230 54.53190 25923 ft 317 kts 271°
2026-04-25 08:32 25.21693 54.50726 25930 ft 340 kts 283°
2026-04-25 08:33 25.22341 54.48136 25945 ft 359 kts 284°
2026-04-25 08:33 25.23041 54.45461 25951 ft 375 kts 284°
2026-04-25 08:33 25.23760 54.42629 25948 ft 389 kts 284°
2026-04-25 08:33 25.24489 54.39701 25949 ft 401 kts 283°
2026-04-25 08:34 25.25240 54.36694 25946 ft 411 kts 284°
2026-04-25 08:34 25.26015 54.33622 25948 ft 419 kts 284°
2026-04-25 08:34 25.26803 54.30498 25946 ft 425 kts 284°
2026-04-25 08:34 25.27589 54.27327 25947 ft 430 kts 283°
2026-04-25 08:35 25.28381 54.24119 25949 ft 435 kts 283°
2026-04-25 08:35 25.29173 54.20914 25949 ft 430 kts 284°
2026-04-25 08:35 25.29961 54.17754 25946 ft 424 kts 283°
2026-04-25 08:35 25.30732 54.14629 25949 ft 419 kts 283°
2026-04-25 08:36 25.31415 54.11524 25944 ft 414 kts 280°
2026-04-25 08:36 25.32057 54.08431 25944 ft 411 kts 282°
2026-04-25 08:36 25.32741 54.05370 25943 ft 409 kts 282°
2026-04-25 08:36 25.33397 54.02320 25941 ft 407 kts 281°
2026-04-25 08:37 25.34027 53.99280 25940 ft 405 kts 281°
2026-04-25 08:37 25.34663 53.96246 25939 ft 404 kts 281°
2026-04-25 08:37 25.35302 53.93225 25938 ft 403 kts 281°
2026-04-25 08:37 25.35944 53.90212 25936 ft 402 kts 281°
2026-04-25 08:38 25.36574 53.87202 25936 ft 402 kts 281°
2026-04-25 08:38 25.37206 53.84198 25930 ft 401 kts 281°
2026-04-25 08:38 25.37837 53.81194 25934 ft 401 kts 281°
2026-04-25 08:38 25.38469 53.78198 25937 ft 400 kts 281°
2026-04-25 08:39 25.39100 53.75197 25935 ft 400 kts 281°
2026-04-25 08:39 25.39727 53.72200 25936 ft 400 kts 281°
2026-04-25 08:39 25.40356 53.69208 25926 ft 400 kts 281°
2026-04-25 08:39 25.40982 53.66208 25936 ft 400 kts 281°
2026-04-25 08:40 25.41611 53.63214 25933 ft 399 kts 281°
2026-04-25 08:40 25.42235 53.60222 25939 ft 399 kts 281°
2026-04-25 08:40 25.42860 53.57230 25940 ft 399 kts 281°
2026-04-25 08:40 25.43484 53.54234 25936 ft 399 kts 281°
2026-04-25 08:41 25.44107 53.51241 25942 ft 399 kts 281°
2026-04-25 08:41 25.44730 53.48251 25947 ft 399 kts 281°
2026-04-25 08:41 25.45349 53.45259 25950 ft 399 kts 281°
2026-04-25 08:41 25.45973 53.42268 25942 ft 399 kts 281°
2026-04-25 08:42 25.46591 53.39275 25942 ft 399 kts 281°
2026-04-25 08:42 25.47212 53.36283 25945 ft 399 kts 281°
2026-04-25 08:42 25.47829 53.33292 25944 ft 399 kts 281°
2026-04-25 08:42 25.48449 53.30296 25944 ft 399 kts 280°
2026-04-25 08:43 25.49067 53.27303 25944 ft 399 kts 281°
2026-04-25 08:43 25.49682 53.24313 25955 ft 399 kts 280°
2026-04-25 08:43 25.50300 53.21322 25958 ft 399 kts 280°
2026-04-25 08:43 25.50912 53.18326 25956 ft 399 kts 280°
2026-04-25 08:44 25.51519 53.15373 25955 ft 398 kts 280°
2026-04-25 08:44 25.52130 53.12380 25959 ft 398 kts 280°
2026-04-25 08:44 25.52744 53.09386 25963 ft 398 kts 280°
2026-04-25 08:44 25.53356 53.06392 25959 ft 398 kts 280°
2026-04-25 08:45 25.53965 53.03402 25959 ft 398 kts 280°
2026-04-25 08:45 25.54577 53.00410 25962 ft 398 kts 280°
2026-04-25 08:45 25.55184 52.97421 25964 ft 398 kts 280°
2026-04-25 08:45 25.55794 52.94433 25958 ft 398 kts 280°
2026-04-25 08:46 25.56436 52.91450 25961 ft 399 kts 284°
2026-04-25 08:46 25.57624 52.88652 25956 ft 403 kts 295°
2026-04-25 08:46 25.58945 52.85916 25954 ft 403 kts 295°
2026-04-25 08:46 25.60287 52.83186 25958 ft 403 kts 295°
2026-04-25 08:47 25.61629 52.80455 25963 ft 403 kts 295°
2026-04-25 08:47 25.62962 52.77723 25961 ft 403 kts 295°
2026-04-25 08:47 25.64287 52.74988 25968 ft 403 kts 295°
2026-04-25 08:47 25.65621 52.72249 25967 ft 403 kts 295°
2026-04-25 08:48 25.66954 52.69514 25966 ft 403 kts 295°
2026-04-25 08:48 25.68291 52.66766 25963 ft 403 kts 295°
2026-04-25 08:48 25.69624 52.64032 25969 ft 403 kts 294°
2026-04-25 08:48 25.70952 52.61290 25967 ft 403 kts 295°
2026-04-25 08:49 25.72262 52.58588 25968 ft 403 kts 294°
2026-04-25 08:49 25.73591 52.55848 25969 ft 403 kts 294°
2026-04-25 08:49 25.74921 52.53109 25971 ft 404 kts 295°
2026-04-25 08:49 25.76254 52.50368 25968 ft 403 kts 294°
2026-04-25 08:50 25.77553 52.47610 25970 ft 403 kts 293°
2026-04-25 08:50 25.78814 52.44835 25968 ft 403 kts 293°
2026-04-25 08:50 25.80092 52.42067 25971 ft 403 kts 294°
2026-04-25 08:50 25.81386 52.39307 25972 ft 403 kts 294°
2026-04-25 08:51 25.82677 52.36540 25968 ft 403 kts 293°
2026-04-25 08:51 25.83958 52.33775 25968 ft 403 kts 293°
2026-04-25 08:51 25.85237 52.31006 25972 ft 403 kts 293°
2026-04-25 08:51 25.86527 52.28241 25975 ft 403 kts 294°
2026-04-25 08:52 25.88190 52.25713 25964 ft 411 kts 308°
2026-04-25 08:52 25.90127 52.23376 25968 ft 410 kts 308°
2026-04-25 08:52 25.92056 52.21041 25968 ft 411 kts 308°
2026-04-25 08:52 25.94002 52.18711 25968 ft 411 kts 308°
2026-04-25 08:53 25.95939 52.16373 25970 ft 411 kts 308°
2026-04-25 08:53 25.97866 52.14034 25971 ft 411 kts 308°
2026-04-25 08:53 25.99800 52.11697 25968 ft 411 kts 308°
2026-04-25 08:53 26.01732 52.09357 25969 ft 411 kts 308°
2026-04-25 08:54 26.03665 52.07023 25972 ft 410 kts 308°
2026-04-25 08:54 26.05593 52.04683 25970 ft 410 kts 308°
2026-04-25 08:54 26.07527 52.02344 25970 ft 410 kts 308°
2026-04-25 08:54 26.09457 52.00006 25974 ft 410 kts 308°
2026-04-25 08:55 26.11389 51.97665 25972 ft 410 kts 308°
2026-04-25 08:55 26.13316 51.95329 25974 ft 410 kts 308°
2026-04-25 08:55 26.15242 51.92989 25972 ft 410 kts 308°
2026-04-25 08:55 26.17172 51.90650 25973 ft 410 kts 308°
2026-04-25 08:56 26.19097 51.88310 25973 ft 410 kts 308°
2026-04-25 08:56 26.21025 51.85969 25972 ft 410 kts 308°
2026-04-25 08:56 26.22949 51.83628 25974 ft 410 kts 308°
2026-04-25 08:56 26.24839 51.81261 25970 ft 407 kts 303°
2026-04-25 08:57 26.26235 51.78559 25721 ft 399 kts 293°
2026-04-25 08:57 26.27462 51.75863 25122 ft 382 kts 292°
2026-04-25 08:57 26.28596 51.73250 24529 ft 368 kts 291°
2026-04-25 08:57 26.29705 51.70726 23944 ft 358 kts 292°
2026-04-25 08:58 26.30802 51.68275 23342 ft 349 kts 292°
2026-04-25 08:58 26.31879 51.65876 22653 ft 343 kts 292°
2026-04-25 08:58 26.32926 51.63517 21989 ft 337 kts 292°
2026-04-25 08:58 26.33961 51.61193 21338 ft 332 kts 291°
2026-04-25 08:59 26.34985 51.58898 20702 ft 328 kts 291°
2026-04-25 08:59 26.35994 51.56629 20084 ft 325 kts 291°
2026-04-25 08:59 26.36997 51.54382 19473 ft 322 kts 291°
2026-04-25 08:59 26.37946 51.52171 18880 ft 317 kts 287°
2026-04-25 09:00 26.38667 51.49869 18299 ft 313 kts 284°
2026-04-25 09:00 26.39391 51.47585 17641 ft 311 kts 284°
2026-04-25 09:00 26.40120 51.45320 16982 ft 310 kts 285°
2026-04-25 09:00 26.40847 51.43066 16346 ft 308 kts 284°
2026-04-25 09:01 26.41562 51.40819 15716 ft 307 kts 285°
2026-04-25 09:01 26.42274 51.38584 15102 ft 305 kts 284°
2026-04-25 09:01 26.42993 51.36358 14498 ft 305 kts 287°
2026-04-25 09:01 26.43530 51.34115 13891 ft 296 kts 267°
2026-04-25 09:02 26.43279 51.31866 13245 ft 291 kts 256°
2026-04-25 09:02 26.42851 51.29663 12598 ft 290 kts 254°
2026-04-25 09:02 26.42357 51.27483 12044 ft 287 kts 253°
2026-04-25 09:02 26.41861 51.25385 11964 ft 276 kts 253°
2026-04-25 09:03 26.41261 51.23289 11962 ft 291 kts 243°
2026-04-25 09:03 26.40173 51.21315 11688 ft 313 kts 236°
2026-04-25 09:03 26.38882 51.19260 10891 ft 326 kts 234°
2026-04-25 09:03 26.37531 51.17225 10115 ft 327 kts 233°
2026-04-25 09:04 26.36171 51.15218 9296 ft 322 kts 233°
2026-04-25 09:04 26.35842 51.14737 9093 ft 322 kts 233°
2026-04-25 09:04 26.34498 51.12763 8269 ft 317 kts 233°
2026-04-25 09:04 26.33176 51.10828 7463 ft 309 kts 233°
2026-04-25 09:05 26.31914 51.08970 6673 ft 293 kts 233°
2026-04-25 09:05 26.30708 51.07192 5859 ft 285 kts 233°
2026-04-25 09:05 26.29544 51.05493 5074 ft 284 kts 233°
2026-04-25 09:05 26.28323 51.03764 4264 ft 282 kts 233°
2026-04-25 09:06 26.27105 51.02085 3443 ft 276 kts 233°
2026-04-25 09:06 26.25984 51.00398 2980 ft 260 kts 240°
2026-04-25 09:06 26.25118 50.98709 2977 ft 247 kts 243°
2026-04-25 09:06 26.24284 50.97072 2953 ft 240 kts 243°
2026-04-25 09:07 26.23455 50.95430 2807 ft 246 kts 243°
2026-04-25 09:07 26.22579 50.93701 2221 ft 268 kts 243°
2026-04-25 09:07 26.21672 50.91892 2001 ft 256 kts 243°
2026-04-25 09:07 26.20855 50.90250 1978 ft 231 kts 243°
2026-04-25 09:08 26.20062 50.88681 1981 ft 236 kts 243°
2026-04-25 09:08 26.19261 50.87084 1977 ft 235 kts 243°
2026-04-25 09:08 26.18467 50.85501 1965 ft 233 kts 243°
2026-04-25 09:08 26.17696 50.83933 1971 ft 229 kts 249°
2026-04-25 09:09 26.17470 50.82244 1979 ft 212 kts 271°
2026-04-25 09:09 26.17445 50.80685 1986 ft 189 kts 272°
2026-04-25 09:09 26.17681 50.79368 1967 ft 166 kts 308°
2026-04-25 09:09 26.18360 50.78397 1971 ft 155 kts 307°
2026-04-25 09:10 26.18947 50.77453 1979 ft 143 kts 309°
2026-04-25 09:10 26.19481 50.76552 1978 ft 135 kts 307°
2026-04-25 09:10 26.19979 50.75688 1977 ft 132 kts 306°
2026-04-25 09:10 26.20500 50.74793 1987 ft 144 kts 306°
2026-04-25 09:11 26.21688 50.72726 1671 ft 152 kts 307°
2026-04-25 09:11 26.22210 50.71810 1470 ft 131 kts 307°
2026-04-25 09:11 26.22705 50.70969 1296 ft 130 kts 309°
2026-04-25 09:12 26.23214 50.70086 1129 ft 140 kts 309°
2026-04-25 09:12 26.23565 50.69475 1008 ft 143 kts 307°
2026-04-25 09:12 26.24103 50.68537 833 ft 145 kts 307°
2026-04-25 09:12 26.24686 50.67527 642 ft 163 kts 304°
2026-04-25 09:13 26.25271 50.66495 407 ft 149 kts 305°
2026-04-25 09:13 26.25765 50.65614 235 ft 126 kts 304°
2026-04-25 09:13 26.26242 50.64803 95 ft 127 kts 304°
2026-04-25 09:13 26.26685 50.64059 27 ft 100 kts 305°
2026-04-25 09:14 26.27003 50.63513 16 ft 69 kts 302°
2026-04-25 09:14 26.27230 50.63087 17 ft 59 kts 282°
2026-04-25 09:14 26.27255 50.62781 23 ft 19 kts 258°
2026-04-25 09:14 26.27248 50.62756 23 ft 0 kts 250°
2026-04-25 09:15 26.27247 50.62719 23 ft 12 kts 285°
2026-04-25 09:15 26.27252 50.62693 22 ft 0 kts 269°
2026-04-25 09:15 26.27251 50.62685 22 ft 8 kts 271°
2026-04-25 09:15 26.27335 50.62584 21 ft 18 kts 301°
2026-04-25 09:16 26.27353 50.62552 23 ft 0 kts 301°
2026-04-25 09:17 26.27381 50.62502 23 ft 19 kts 302°
2026-04-25 09:17 26.27492 50.62320 18 ft 25 kts 302°
2026-04-25 09:18 26.27495 50.62170 18 ft 18 kts 246°
2026-04-25 09:18 26.27522 50.62056 19 ft 24 kts 303°
2026-04-25 09:18 26.27565 50.61971 21 ft 13 kts 276°
2026-04-25 09:18 26.27586 50.61917 19 ft 0 kts 308°